Regional Weather Roundup
Issued by NWS

Home | Current Version | Previous Version | Text Only | Print | Product List | Glossary Off
Versions: 1 2 3 4 5 6 7 8 9 10 11 12 13 14 15 16 17 18 19 20 21 22 23 24 25 26 27 28 29 30 31 32 33 34 35 36 37 38 39 40 41 42 43 44 45 46 47 48 49 50

000
ASUS43 KOAX 072102
RWRNE

WEATHER ROUNDUP FOR NEBRASKA
NATIONAL WEATHER SERVICE OMAHA NE
300 PM CST WED DEC 07 2016

NOTES: SATELLITE DATA IS BEING USED TO AUGMENT CLOUD COVER ABOVE
       12000 FEET.
       "FAIR" INDICATES FEW OR NO CLOUDS BELOW 12,000 FEET WITH NO
       SIGNIFICANT WEATHER AND/OR OBSTRUCTIONS TO VISIBILITY.

  * THESE STATIONS DO NOT REPORT WEATHER SUCH AS RAIN...SNOW OR FOG.

NEZ001>004-019>022-054>056-072200-
NEBRASKA PANHANDLE

CITY           SKY/WX    TMP DP  RH WIND       PRES   REMARKS
SCOTTSBLUFF    SUNNY     14   0  53 NW18G25   30.31S WCI  -3
ALLIANCE       MOSUNNY   15   1  53 NW16      30.28R WCI  -1
CHADRON        SUNNY     12  -4  48 NW21G30   30.36R WCI  -7
SIDNEY         PTSUNNY   12   4  70 N18       30.27R WCI  -6
$$

NEZ057>060-069>072-079>082-072200-
SOUTHWEST NEBRASKA

CITY           SKY/WX    TMP DP  RH WIND       PRES   REMARKS
NORTH PLATTE   CLOUDY    21   3  45 N15G22    30.32R WCI   8
IMPERIAL       CLOUDY    16   8  71 NW15      30.32R WCI   1
MCCOOK         LGT SNOW  19  11  70 NW12      30.35R WCI   7
$$

NEZ005>010-023>029-035>040-094-072200-
NORTH CENTRAL NEBRASKA

CITY           SKY/WX    TMP DP  RH WIND       PRES   REMARKS
VALENTINE      SUNNY     16   0  49 NW21G31   30.33R WCI  -1
BROKEN BOW     PTSUNNY   20   1  43 NW18G25   30.31R WCI   5
$$

NEZ041-046>049-061>064-073>077-083>087-072200-
SOUTH CENTRAL NEBRASKA

CITY           SKY/WX    TMP DP  RH WIND       PRES   REMARKS
GRAND ISLAND   SUNNY     22   2  42 NW15      30.33R WCI   9
$$

NEZ011>018-030>034-042>045-072200-
NORTHEAST NEBRASKA

CITY           SKY/WX    TMP DP  RH WIND       PRES   REMARKS
$$

NEZ050>053-065>068-078-088>093-072200-
SOUTHEAST NEBRASKA

CITY           SKY/WX    TMP DP  RH WIND       PRES   REMARKS
OMAHA EPPLEY   PTSUNNY   25   7  46 NW17G26   30.32R WCI  12
FALLS CITY     CLOUDY    25   8  48 NW13      30.33R WCI  14
$$

NEZ044-045-051>053-067-072200-
OMAHA AREA

CITY           SKY/WX    TMP DP  RH WIND       PRES   REMARKS
OMAHA EPPLEY   PTSUNNY   25   7  46 NW17G26   30.32R WCI  12
OFFUTT AFB     MOSUNNY   25   8  47 NW16      30.32R WCI  13
$$




USA.gov is the U.S. government's official web portal to all federal, state and local government web resources and services.